Weather History for Clinton-Sherman, OK

Change the Weather History Date:

Friday, October 7, 2011

  Actual Average Record
Temperature  
Mean Temperature 78 °F -  
Max Temperature 86 °F 73 °F 90 °F (2007)
Min Temperature 69 °F 52 °F 35 °F (2012)
Cooling Degree Days 12    
Growing Degree Days 28 (Base 50)    
Moisture  
Dew Point 63 °F    
Average Humidity 66    
Maximum Humidity 81    
Minimum Humidity 43    
Precipitation  
Precipitation 0.00 in - - ()
Sea Level Pressure  
Sea Level Pressure 29.88 in    
Wind  
Wind Speed 25 mph (SSE)    
Max Wind Speed 33 mph    
Max Gust Speed 43 mph    
Visibility 10 miles    
Events      
Averages and records for this station are not official NWS values.
T = Trace of Precipitation, MM = Missing Value Source: NWS Daily Summary

Daily Weather History Graph

Daily Weather History Graph

Search for Another Location

Airport:

Trip Planner

Search our weather history database for the weather conditions in past years. The results will help you decide how hot, cold, wet, or windy it might be!

Date:

Astronomy

Oct. 07, 2011 Rise Set
Actual Time 7:36 AM CDT 7:12 PM CDT
Civil Twilight 7:10 AM CDT 7:37 PM CDT
Nautical Twilight 6:41 AM CDT 8:07 PM CDT
Astronomical Twilight 6:11 AM CDT 8:36 PM CDT
Moon 4:49 PM CDT (10/7) 3:34 AM CDT (10/7)
Length of Visible Light 12h 27m
Length of Day
11h 36m
Waxing Gibbous, 83% of the Moon is Illuminated
Oct 7
Waxing Gibbous
Oct 11
Full
Oct 19
Last Quarter
Oct 26
New
Nov 2
First Quarter

Hourly Weather History & Observations

Time (CDT) Temp. Heat Index Dew Point Humidity Pressure Visibility Wind Dir Wind Speed Gust Speed Precip Events Conditions
12:53 AM 73.9 °F - 60.1 °F 62% 29.82 in 10.0 mi SSE 25.3 mph 34.5 mph N/A   Clear
1:53 AM 73.0 °F - 60.1 °F 64% 29.82 in 10.0 mi SSE 25.3 mph 34.5 mph N/A   Clear
2:53 AM 73.0 °F - 61.0 °F 66% 29.83 in 10.0 mi SSE 27.6 mph 34.5 mph N/A   Mostly Cloudy
3:53 AM 72.0 °F - 62.1 °F 71% 29.83 in 10.0 mi SSE 26.5 mph 34.5 mph N/A   Partly Cloudy
4:53 AM 71.1 °F - 63.0 °F 75% 29.84 in 10.0 mi SSE 25.3 mph 32.2 mph N/A   Clear
5:53 AM 70.0 °F - 64.0 °F 81% 29.86 in 10.0 mi SSE 24.2 mph 29.9 mph N/A   Partly Cloudy
6:53 AM 70.0 °F - 63.0 °F 78% 29.87 in 10.0 mi SSE 23.0 mph 33.4 mph N/A   Clear
7:48 AM 69.8 °F - 62.6 °F 78% 29.96 in 10.0 mi South 23.0 mph 29.9 mph N/A   Mostly Cloudy
7:53 AM 70.0 °F - 63.0 °F 78% 29.90 in 10.0 mi South 20.7 mph 28.8 mph N/A   Mostly Cloudy
8:53 AM 71.1 °F - 64.0 °F 78% 29.92 in 10.0 mi South 23.0 mph 31.1 mph N/A   Overcast
9:53 AM 71.1 °F - 64.0 °F 78% 29.94 in 10.0 mi South 26.5 mph 34.5 mph N/A   Overcast
10:34 AM 71.6 °F - 64.4 °F 78% 30.00 in 10.0 mi South 21.9 mph 32.2 mph 0.00 in   Overcast
10:41 AM 71.6 °F - 64.4 °F 78% 30.00 in 10.0 mi South 23.0 mph - 0.00 in   Overcast
11:10 AM 73.4 °F - 64.4 °F 73% 30.00 in 10.0 mi South 25.3 mph 35.7 mph 0.00 in   Overcast
12:53 PM 79.0 °F - 63.0 °F 58% 29.91 in 10.0 mi South 26.5 mph 34.5 mph N/A   Overcast
1:53 PM 80.1 °F 81.5 °F 63.0 °F 56% 29.89 in 10.0 mi South 26.5 mph 33.4 mph N/A   Overcast
2:53 PM 84.0 °F 84.4 °F 61.0 °F 46% 29.86 in 10.0 mi South 26.5 mph 35.7 mph N/A   Overcast
3:53 PM 86.0 °F 86.1 °F 61.0 °F 43% 29.84 in 10.0 mi SSE 26.5 mph 39.1 mph N/A   Mostly Cloudy
4:53 PM 84.0 °F 84.4 °F 61.0 °F 46% 29.84 in 10.0 mi SSE 29.9 mph 36.8 mph N/A   Mostly Cloudy
5:53 PM 82.0 °F 83.4 °F 64.0 °F 54% 29.84 in 10.0 mi SE 31.1 mph 38.0 mph N/A   Mostly Cloudy
6:53 PM 80.1 °F 81.5 °F 63.0 °F 56% 29.84 in 10.0 mi SSE 26.5 mph 35.7 mph N/A   Clear
7:53 PM 78.1 °F - 64.0 °F 62% 29.86 in 10.0 mi SE 21.9 mph 28.8 mph N/A   Clear
8:53 PM 75.9 °F - 64.0 °F 67% 29.87 in 10.0 mi SE 19.6 mph 28.8 mph N/A   Clear
9:53 PM 75.9 °F - 63.0 °F 64% 29.87 in 10.0 mi SE 24.2 mph 31.1 mph N/A   Clear
10:53 PM 75.9 °F - 63.0 °F 64% 29.87 in 10.0 mi SE 24.2 mph 35.7 mph N/A   Mostly Cloudy
11:53 PM 75.9 °F - 62.1 °F 62% 29.86 in 10.0 mi SSE 33.4 mph 42.6 mph N/A   Clear